Home > Weather > Guatemala > Past weeks

Flag for Guatemala Weather for the Past 2 Weeks in Guatemala, Guatemala

Now
55 °F

Scattered clouds.


Feels Like: 51 °F
Forecast: 47 / 70 °F
Wind: 21 mph from North

Location: Guatemala Aeropuertola Aurora

Current Time: Feb 11, 2016 at 9:29:13 AM

Latest Report: Feb 11, 2016 at 9:00 AM


Visibility: N/A

Pressure: 30.42 "Hg (25.33 "Hg at 1533m altitude)

Humidity: 63%

Dew point: 43 °F

Location of GuatemalaLocation

Historic Weather in Guatemala — Graph

°F

Guatemala Temperature Yesterday

Maximum temperature yesterday: 64 °F (at 2:00 PM)
Minimum temperature yesterday: 48 °F (at 3:00 AM)
Average temperature yesterday: 55 °F

High & Low Weather Summary for the Past Weeks

 TemperatureHumidityPressure
High81 °F (Feb 1, 1:00 PM)100% (Jan 31, 2:00 AM)30.48 "Hg (Jan 31, 2:00 AM)
Low48 °F (Feb 8, 5:00 AM)39% (Feb 1, 2:00 PM)30.15 "Hg (Jan 27, 3:00 PM)
Average63 °F74%30.30 "Hg
* Reported Jan 27 8:00 AM — Feb 11 8:00 AM, Guatemala, Weather by CustomWeather, © 2016

Note: Actual official high and low records may vary slightly from our data, if they occured in-between our weather recording intervals... More about our weather records

Advertising

Guatemala Weather History for the Previous 24 Hours

 ConditionsComfort  
Time TempWeatherWind HumidityBarometerVisibility
8:00 AM
Thu, Feb 11
52 °FSunny.16 mph72%30.42 "Hg10 mi
7:00 AM48 °FSunny.16 mph82%30.39 "Hg10 mi
6:00 AM50 °FClear.16 mph71%30.36 "Hg10 mi
5:00 AM50 °FClear.16 mph71%30.36 "Hg10 mi
4:00 AM50 °FClear.14 mph71%30.36 "Hg10 mi
3:00 AM50 °FClear.14 mph67%30.36 "Hg10 mi
2:00 AM50 °FClear.18 mph71%30.39 "Hg10 mi
1:00 AM50 °FClear.18 mph71%30.42 "Hg10 mi
12:00 AM50 °FClear.16 mph71%30.45 "Hg10 mi
11:00 PM
Wed, Feb 10
52 °FClear.16 mph67%30.45 "Hg10 mi
10:00 PM54 °FClear.18 mph58%30.48 "Hg10 mi
9:00 PM54 °FClear.21 mph58%30.45 "Hg10 mi
8:00 PM54 °FClear.21 mph63%30.45 "Hg10 mi
7:00 PM55 °FClear.18 mph63%30.42 "Hg10 mi
6:00 PM59 °FSunny.21 mph59%30.39 "Hg10 mi
5:00 PM63 °FSunny.18 mph49%30.36 "Hg10 mi
4:00 PM64 °FSunny.21 mph52%30.36 "Hg10 mi
3:00 PM64 °FSunny.21 mph46%30.36 "Hg10 mi
2:00 PM64 °FPassing clouds.23 mph46%30.39 "HgN/A
1:00 PM63 °FPassing clouds.23 mph56%30.42 "HgN/A
12:00 PM61 °FPartly sunny.23 mph59%30.45 "HgN/A
11:00 AM61 °FPartly sunny.23 mph59%30.48 "HgN/A
10:00 AM57 °FPartly sunny.23 mph67%30.48 "HgN/A
9:00 AM54 °FPartly sunny.23 mph72%30.48 "HgN/A
Weather by CustomWeather, © 2016

See weather overviewHow to use our weather pages